Weather in Murgash

Bulgaria     42°59′08″N   23°00′07″E
temp.,
°C
wind,
m/s
gust,
m/s
humid.,
%
clouds,
%
prec.,
mm/h
press.,
hPa
HPBL,
m
14 june, mon
mon1400:00+7nnw22897 0.0 101818
03:00+6nw22935 0.1 101827
06:00+6nw22874 0.0 101715
09:00+11nw35715 0.1 1016730
12:00+13nw666854 0.8 10151277
15:00+14nw567095 2.4 10151502
18:00+13nw457725 1.6 1015947
21:00+9nnw2388100 2.5 101643
15 june, tue
tue1500:00+9nw118833 0.1 101816
03:00+5nw22966 0.1 101933
06:00+5nw229728 0.0 101964
09:00+9wnw2388100 0.0 1018415
12:00+13wnw557481 0.0 1017949
15:00+15wnw5569100 0.1 10161058
18:00+14wnw567399 0.1 1016875
21:00+10wnw34924 0.1 101670
16 june, wed
wed1600:00+8nw339616 0.0 101746
03:00+8nw239726 0.0 101771
06:00+8nw229840 0.0 101671
09:00+13wnw348842 0.0 1016365
12:00+17wnw557571 0.1 1016937
15:00+18wnw457242 0.7 10151015
18:00+18nw45760 1.4 1015788
21:00+14nw22871 2.4 101617
17 june, thu
thu1700:00+12nnw11875 0.0 101811
03:00+11nw228961 0.0 101811
06:00+10nw119034 0.0 101810
09:00+15wnw23845 0.0 1018290
12:00+19nw337352 0.8 1018915
15:00+20nw337354 4.7 1017876
18:00+18n228177 3.3 1017207
21:00+15nne118319 5.1 101811
18 june, fri
fri1800:00+13n118448 0.4 101810
03:00+13nw1187100 0.4 101710
06:00+12nw1191100 0.0 101710
09:00+15wnw2390100 1.0 1017196
12:00+17nw3588100 2.2 1016362
15:00+14wnw2496100 5.3 1017292
18:00+14wnw2498100 4.2 1017250
21:00+14nw229754 4.4 101747